fechar
X Fechar
X Fechar

X Fechar
foto
Salvar nos Favoritos

X Fechar
foto
Clique e saiba mais
Clique e saiba mais
Clique e saiba mais
Clique e saiba mais
Clique e saiba mais
Clique e saiba mais
Clique e saiba mais

América Sports

Capacete Companhia

RM - Motocross Racing

Edgers Racing

RX Graphics

JPS Racing

Ohlins

DLua Racing

Toro Sports

Clique e saiba mais

> Notícias > Últimas Notícias

Mundial de Motocross 2017: resultados da 13ª etapa em Loket
Publicado em: 23/07/2017

República Checa sedia 13ª etapa do campeonato
Redação MotoX.com.br: Lucidio Arruda - Foto: Ray Archer


Largada da Classificatória MX2 no sábado

Ninguém segura o italiano! Antonio Cairoli conquista seu terceiro GP consecutivo, 83º na carreira. Na MX2 Pauls Jonass faturou a etapa e abriu mais nove pontos sobre Jeremy Seewer.

Em breve o artigo completo sobre o MXGP da República Checa.

Vídeo



Resultados

P. Nac MXGP Bateria 2 M Tempo Diff Gap Melhor Volta Last Lap
1 IT A. Cairoli (222) KTM 34:45.495 +10:39.999 +10:39.999 01:45.942 19: 01:52.526
2 BE C. Desalle (25) KAW 34:50.025 +00:04.530 +00:04.530 01:47.323 19: 01:50.783
3 NL J. Herlings (84) KTM 34:54.484 +00:08.989 +00:04.459 01:47.135 19: 01:49.782
4 SI T. Gajser (243) HON 34:56.341 +00:10.846 +00:01.857 01:47.644 19: 01:49.490
5 FR G. Paulin (21) HUS 34:57.075 +00:11.580 +00:00.734 01:47.144 19: 01:49.001
6 FR R. Febvre (461) YAM 35:01.049 +00:15.554 +00:03.974 01:47.603 19: 01:52.188
7 BE J. V. Horebeek (89) YAM 35:17.436 +00:31.941 +00:16.387 01:47.335 19: 01:53.769
8 LT A. Jasikonis (27) SUZ 35:23.688 +00:38.193 +00:06.252 01:48.095 19: 01:51.376
9 RU E. Bobryshev (777) HON 35:29.639 +00:44.144 +00:05.951 01:47.536 19: 01:51.375
10 CH A. Tonus (4) YAM 35:30.331 +00:44.836 +00:00.692 01:48.370 19: 01:49.974
11 NL G. Coldenhoff (259) KTM 35:32.356 +00:46.861 +00:02.025 01:48.871 19: 01:50.435
12 GB M. Anstie (99) HUS 35:39.607 +00:54.112 +00:07.251 01:49.338 19: 01:58.631
13 DE M. Nagl (12) HUS 35:52.356 +01:06.861 +00:12.749 01:48.358 19: 01:57.168
14 EE T. Leok (7) HUS 36:04.873 +01:19.378 +00:12.517 01:49.515 19: 01:59.674
15 BE K. Strijbos (22) SUZ 36:09.259 +01:23.764 +00:04.386 01:48.851 19: 01:56.471
16 IT A. Lupino (77) HON 36:13.229 +01:27.734 +00:03.970 01:48.766 19: 01:53.993
17 BE K. d. Dycker (9) HON 36:17.867 +01:32.372 +00:04.638 01:50.434 19: 01:56.419
18 ES J. Butron (17) KTM 36:22.530 +01:37.035 +00:04.663 01:50.498 19: 01:58.433
19 FR M. Desprey (141) KAW 36:42.230 +01:56.735 +00:19.700 01:51.409 19: 02:03.221
20 BE D. Graulus (71) HON 34:48.750 -1 lap -1 lap 01:51.890 18: 01:58.970
21 AT L. Neurauter (909) KTM 34:52.087 -1 lap -1 lap 01:51.319 18: 01:56.744
22 CZ M. Michek (232) KTM 35:05.566 -1 lap -1 lap 01:52.917 18: 01:57.884
23 GB R. Houghton (119) YAM 35:14.336 -1 lap -1 lap 01:53.060 18: 01:59.820
24 BE J. Dewulf (212) KTM 35:27.059 -1 lap -1 lap 01:52.264 18: 01:56.557
25 IT S. Pezzuto (878) YAM 35:56.476 -1 lap -1 lap 01:53.372 18: 02:06.207
26 SI J. Irt (49) HUS 36:05.067 -1 lap -1 lap 01:53.658 18: 01:58.138
27 PL T. Wysocki (831) KTM 36:11.460 -1 lap -1 lap 01:55.288 18: 02:01.685
28 SE J. Bengtsson (93) KTM 36:12.411 -1 lap -1 lap 01:52.620 18: 01:57.052
29 SI P. Irt (73) YAM 36:17.619 -1 lap -1 lap 01:53.994 18: 01:59.975
30 CZ P. Bartos (311) KTM 36:29.371 -1 lap -1 lap 01:54.892 18: 02:10.998
31 CZ M. Finek (227) KTM 35:33.686 -2 laps -2 laps 01:53.839 17: 02:08.131
32 CZ J. Romancik (191) KTM 22:22.124 -8 laps -8 laps 01:52.844 11: 02:11.674
33 FR J. Tixier (911) KAW 17:43.804 -10 laps -10 laps 01:49.362 9: 02:19.347
34 PT R. Goncalves (999) HUS 18:31.761 -10 laps -10 laps 01:53.585 9: 02:27.356
35 BE B. Boulard (47) YAM 16:50.088 -11 laps -11 laps 01:53.232 8: 02:29.217
36 CZ R. Weschta (337) SUZ 04:37.305 -17 laps -17 laps 01:57.628  

P. Nac MXGP Bateria 1 M Tempo Diff Gap Melhor Volta Last Lap
1 SI T. Gajser (243) HON 35:16.286 +10:39.999 +10:39.999 01:48.731 19: 01:52.219
2 BE C. Desalle (25) KAW 35:19.382 +00:03.096 +00:03.096 01:48.544 19: 01:49.987
3 IT A. Cairoli (222) KTM 35:20.344 +00:04.058 +00:00.962 01:47.611 19: 01:48.274
4 FR G. Paulin (21) HUS 35:27.526 +00:11.240 +00:07.182 01:48.875 19: 01:51.025
5 NL J. Herlings (84) KTM 35:27.874 +00:11.588 +00:00.348 01:47.252 19: 01:47.257
6 CH A. Tonus (4) YAM 35:32.764 +00:16.478 +00:04.890 01:49.315 19: 01:52.978
7 FR R. Febvre (461) YAM 35:42.343 +00:26.057 +00:09.579 01:48.773 19: 01:55.567
8 BE J. V. Horebeek (89) YAM 35:45.765 +00:29.479 +00:03.422 01:49.158 19: 01:55.019
9 BE K. Strijbos (22) SUZ 35:57.980 +00:41.694 +00:12.215 01:50.417 19: 01:52.861
10 DE M. Nagl (12) HUS 35:59.802 +00:43.516 +00:01.822 01:50.268 19: 01:53.741
11 NL G. Coldenhoff (259) KTM 36:06.544 +00:50.258 +00:06.742 01:50.698 19: 01:53.043
12 IT A. Lupino (77) HON 36:11.384 +00:55.098 +00:04.840 01:50.467 19: 01:55.486
13 FR J. Tixier (911) KAW 36:14.174 +00:57.888 +00:02.790 01:50.013 19: 01:52.523
14 RU E. Bobryshev (777) HON 36:18.877 +01:02.591 +00:04.703 01:50.694 19: 01:56.645
15 EE T. Leok (7) HUS 36:51.368 +01:35.082 +00:32.491 01:51.071 19: 02:06.468
16 PT R. Goncalves (999) HUS 36:58.896 +01:42.610 +00:07.528 01:51.877 19: 02:02.787
17 ES J. Butron (17) KTM 37:10.051 +01:53.765 +00:11.155 01:52.491 19: 02:01.533
18 CZ J. Romancik (191) KTM 37:15.822 +01:59.536 +00:05.771 01:52.669 19: 02:01.479
19 BE K. d. Dycker (9) HON 35:24.480 -1 lap -1 lap 01:53.176 18: 01:53.543
20 LT A. Jasikonis (27) SUZ 35:24.774 -1 lap -1 lap 01:50.471 18: 01:50.471
21 IT S. Pezzuto (878) YAM 35:47.193 -1 lap -1 lap 01:54.566 18: 01:58.905
22 CZ M. Finek (227) KTM 35:50.374 -1 lap -1 lap 01:55.539 18: 02:01.562
23 PL T. Wysocki (831) KTM 35:55.173 -1 lap -1 lap 01:55.175 18: 02:00.403
24 CZ R. Weschta (337) SUZ 36:01.056 -1 lap -1 lap 01:55.673 18: 01:59.007
25 GB R. Houghton (119) YAM 36:01.994 -1 lap -1 lap 01:54.999 18: 01:58.761
26 SI P. Irt (73) YAM 36:03.118 -1 lap -1 lap 01:55.843 18: 01:55.843
27 BE J. Dewulf (212) KTM 36:05.039 -1 lap -1 lap 01:55.261 18: 02:00.091
28 BE B. Boulard (47) YAM 36:10.442 -1 lap -1 lap 01:55.618 18: 01:58.628
29 SI J. Irt (49) HUS 36:31.116 -1 lap -1 lap 01:55.894 18: 01:58.341
30 SE J. Bengtsson (93) KTM 36:54.115 -1 lap -1 lap 01:56.181 18: 02:04.613
31 CZ P. Bartos (311) KTM 35:44.326 -2 laps -2 laps 01:56.934 17: 02:21.975
32 AT L. Neurauter (909) KTM 10:53.941 -14 laps -14 laps 01:56.706 5: 02:25.412
33 CZ M. Michek (232) KTM 11:18.691 -14 laps -14 laps 01:55.733 5: 02:49.708
34 GB M. Anstie (99) HUS 08:50.556 -15 laps -15 laps 01:52.933 4: 02:10.019
35 BE D. Graulus (71) HON 06:58.495 -16 laps -16 laps 01:53.974 3: 02:00.827
36 FR M. Desprey (141) KAW 02:53.283 -18 laps -18 laps 02:13.623  

Pódio
1. Antonio Cairoli, 45 pts
2. Clement Desalle, 44
3. Tim Gajser, 43

MX2
 
P. Nac Piloto M Tempo Diff Gap Melhor Volta Last Lap
1 LV P. Jonass (41) KTM 35:26.231 +10:39.999 +10:39.999 01:48.671 19: 01:52.385
2 CH J. Seewer (91) SUZ 35:27.994 +00:01.763 +00:01.763 01:48.586 19: 01:49.436
3 FR B. Paturel (6) YAM 35:28.933 +00:02.702 +00:00.939 01:48.589 19: 01:48.688
4 NL B. Bogers (189) KTM 35:39.629 +00:13.398 +00:10.696 01:49.541 19: 01:50.262
5 BE J. Lieber (33) KTM 35:46.309 +00:20.078 +00:06.680 01:48.917 19: 01:54.034
6 ES J. P. Garcia (61) KTM 35:50.201 +00:23.970 +00:03.892 01:49.877 19: 02:01.646
7 US D. Sanayei (57) KAW 35:52.539 +00:26.308 +00:02.338 01:49.974 19: 01:56.079
8 AU H. Lawrence (96) SUZ 35:54.121 +00:27.890 +00:01.582 01:49.306 19: 01:51.588
9 AU J. Beaton (14) HON 36:00.495 +00:34.264 +00:06.374 01:49.305 19: 01:54.273
10 US T. Covington (64) HUS 36:09.684 +00:43.453 +00:09.189 01:49.326 19: 01:51.985
11 US M. Weltin (56) KAW 36:20.448 +00:54.217 +00:10.764 01:51.456 19: 01:54.549
12 GB C. Mewse (426) HUS 36:23.084 +00:56.853 +00:02.636 01:50.992 19: 01:53.726
13 DK T. K. Olsen (19) HUS 36:28.628 +01:02.397 +00:05.544 01:50.055 19: 01:54.465
14 IT M. Cervellin (747) HON 36:40.071 +01:13.840 +00:11.443 01:51.656 19: 01:54.990
15 IT M. Lesiardo (44) KAW 36:41.647 +01:15.416 +00:01.576 01:51.731 19: 01:56.219
16 BE B. V. doninck (172) YAM 36:42.534 +01:16.303 +00:00.887 01:51.140 19: 01:52.599
17 GB B. Watson (919) KTM 36:44.455 +01:18.224 +00:01.921 01:51.156 19: 01:53.266
18 DE B. Hsu (81) HUS 36:47.278 +01:21.047 +00:02.823 01:50.603 19: 01:52.099
19 FR S. Rubini (118) KAW 36:48.245 +01:22.014 +00:00.967 01:51.210 19: 01:57.383
20 NL B. Vaessen (98) SUZ 36:48.855 +01:22.624 +00:00.610 01:51.380 19: 01:54.796
21 SE A. Gole (297) TM 36:53.707 +01:27.476 +00:04.852 01:52.378 19: 01:54.980
22 ES R. Fernandez (76) KAW 37:14.032 +01:47.801 +00:20.325 01:52.387 19: 01:57.324
23 NL M. D. Waal (95) HON 37:19.367 +01:53.136 +00:05.335 01:52.462 19: 01:57.679
24 NL R. V. D. Moosdijk (39) YAM 37:50.197 +02:23.966 +00:30.830 01:52.411 19: 02:32.972
25 BE N. Renkens (83) KTM 35:37.379 -1 lap -1 lap 01:54.590 18: 01:54.590
26 SE O. Olsson (116) YAM 36:17.363 -1 lap -1 lap 01:55.198 18: 02:00.839
27 NO M. Klingsheim (67) KAW 36:27.354 -1 lap -1 lap 01:54.993 18: 02:05.877
28 CZ D. Drdaj (881) YAM 36:27.894 -1 lap -1 lap 01:54.897 18: 01:54.897
29 CZ P. Polak (313) KTM 36:31.131 -1 lap -1 lap 01:55.790 18: 01:57.134
30 SK R. Sikyna (102) KTM 37:04.252 -1 lap -1 lap 01:54.826 18: 02:00.653
31 NL C. Vlaanderen (10) KTM 28:39.735 -4 laps -4 laps 01:49.194 15: 02:14.021
32 DE H. Jacobi (29) HUS 26:40.253 -6 laps -6 laps 01:51.482 13: 03:31.362
33 FR D. Herbreteau (338) KAW 21:53.692 -8 laps -8 laps 01:52.644 11: 01:53.534
34 FR N. Bres (43) KTM 23:01.646 -8 laps -8 laps 01:54.628 11: 02:18.179
35 LV K. Sabulis (166) KAW 12:12.525 -13 laps -13 laps 01:54.313 6: 01:55.271
36 IT G. Tropepe (223) HUS 12:13.225 -13 laps -13 laps 01:52.387 6: 01:52.387
37 ES J. Zaragoza (199) YAM 06:40.170 -16 laps -16 laps 01:58.143 3: 02:02.566
38 ES I. L. Olano (66) HUS 07:15.877 -16 laps -16 laps 01:54.605 3: 02:48.058

P. Nac MX2 Bateria 1 M Tempo Diff Gap Melhor Volta Last Lap
1 US T. Covington (64) HUS 35:24.193 +10:39.999 +10:39.999 01:54.370 18: 01:59.269
2 LV P. Jonass (41) KTM 35:34.573 +00:10.380 +00:10.380 01:55.191 18: 01:58.983
3 ES J. P. Garcia (61) KTM 35:40.821 +00:16.628 +00:06.248 01:56.077 18: 01:59.904
4 DK T. K. Olsen (19) HUS 35:44.632 +00:20.439 +00:03.811 01:55.795 18: 01:56.524
5 CH J. Seewer (91) SUZ 35:45.490 +00:21.297 +00:00.858 01:55.046 18: 01:55.851
6 FR B. Paturel (6) YAM 35:46.337 +00:22.144 +00:00.847 01:55.044 18: 01:55.044
7 NL B. Bogers (189) KTM 36:04.175 +00:39.982 +00:17.838 01:56.325 18: 01:57.235
8 AU H. Lawrence (96) SUZ 36:05.254 +00:41.061 +00:01.079 01:56.642 18: 01:57.432
9 DE B. Hsu (81) HUS 36:06.788 +00:42.595 +00:01.534 01:55.660 18: 01:57.911
10 GB C. Mewse (426) HUS 36:26.993 +01:02.800 +00:20.205 01:57.273 18: 02:03.534
11 US M. Weltin (56) KAW 36:48.569 +01:24.376 +00:21.576 01:58.285 18: 02:01.709
12 NL C. Vlaanderen (10) KTM 36:52.568 +01:28.375 +00:03.999 01:58.383 18: 02:01.057
13 IT M. Cervellin (747) HON 36:56.396 +01:32.203 +00:03.828 01:59.763 18: 02:02.718
14 AU J. Beaton (14) HON 36:57.487 +01:33.294 +00:01.091 01:58.204 18: 02:02.707
15 ES I. L. Olano (66) HUS 37:11.467 +01:47.274 +00:13.980 01:58.986 18: 02:03.996
16 ES R. Fernandez (76) KAW 37:20.043 +01:55.850 +00:08.576 01:59.611 18: 02:03.378
17 NL B. Vaessen (98) SUZ 37:23.697 +01:59.504 +00:03.654 01:58.506 18: 02:02.657
18 BE J. Lieber (33) KTM 35:29.792 -1 lap -1 lap 01:57.113 17: 01:58.806
19 SK R. Sikyna (102) KTM 35:33.730 -1 lap -1 lap 02:00.358 17: 02:00.577
20 NL M. D. Waal (95) HON 35:38.908 -1 lap -1 lap 02:00.004 17: 02:03.637
21 NO M. Klingsheim (67) KAW 35:44.032 -1 lap -1 lap 02:01.384 17: 02:02.099
22 FR S. Rubini (118) KAW 35:56.061 -1 lap -1 lap 01:59.518 17: 02:02.082
23 ES J. Zaragoza (199) YAM 36:01.585 -1 lap -1 lap 02:01.272 17: 02:06.446
24 FR N. Bres (43) KTM 36:11.710 -1 lap -1 lap 02:02.256 17: 02:09.229
25 BE N. Renkens (83) KTM 36:18.273 -1 lap -1 lap 02:01.863 17: 02:04.823
26 CZ D. Drdaj (881) YAM 36:47.441 -1 lap -1 lap 02:02.566 17: 02:04.320
27 CZ P. Polak (313) KTM 37:00.528 -1 lap -1 lap 02:00.028 17: 02:04.235
28 SE O. Olsson (116) YAM 37:02.369 -1 lap -1 lap 02:04.514 17: 02:13.876
29 IT I. Monticelli (128) KTM 33:30.237 -2 laps -2 laps 02:00.732 16: 02:02.950
30 NL R. V. D. Moosdijk (39) YAM 33:48.710 -2 laps -2 laps 02:01.482 16: 02:03.257
31 IT G. Tropepe (223) HUS 31:55.201 -3 laps -3 laps 01:59.161 15: 02:01.954
32 IT M. Lesiardo (44) KAW 29:53.690 -4 laps -4 laps 02:01.012 14: 02:01.012
33 FR D. Herbreteau (338) KAW 27:36.382 -5 laps -5 laps 01:58.982 13: 02:47.114
34 GB B. Watson (919) KTM 25:19.096 -6 laps -6 laps 01:59.696 12: 02:11.765
35 BE B. V. doninck (172) YAM 22:41.876 -8 laps -8 laps 02:00.012 10: 02:10.880
36 US D. Sanayei (57) KAW 19:58.102 -9 laps -9 laps 02:01.192 9: 02:02.587
37 DE H. Jacobi (29) HUS 11:55.371 -13 laps -13 laps 02:01.454 5: 02:53.730
38 LV K. Sabulis (166) KAW 15:08.471 -13 laps -13 laps 02:03.312 5: 06:11.092
39 SE A. Gole (297) TM 09:19.395 -14 laps -14 laps 02:05.363 4: 02:12.543

Pódio
1. Pauls Jonass, 47 pts
2. Jeremy Seewer, 38
3. Thomas Covington, 36






Vídeos MotoX Connect



Acompanhe o MotoX no Facebook

Curso MotoX Ric Raspa
Brasil Racing
JPS Racing

© 2000 - 2017 MotoX MX1 Internet